Regional Weather Roundup
Issued by NWS

Home | Current Version | Previous Version | Text Only | Print | Product List | Glossary Off
Versions: 1 2 3 4 5 6 7 8 9 10 11 12 13 14 15 16 17 18 19 20 21 22 23 24 25 26 27

000
ASUS45 KBOU 230010
RWRCO

WEATHER ROUNDUP FOR COLORADO
NATIONAL WEATHER SERVICE DENVER/BOULDER CO
500 PM MST MON JAN 22 2018

NOTE: "FAIR" INDICATES FEW OR NO CLOUDS BELOW 12000 FEET WITH NO
SIGNIFICANT WEATHER AND/OR OBSTRUCTIONS TO VISIBILITY.

COZ001>005-013-030-031-230100-
...NORTHWEST COLORADO...

CITY           SKY/WX    TMP DP  RH WIND       PRES   REMARKS
CRAIG          MOCLDY    19   9  65 CALM      30.23R
HAYDEN         NOT AVBL
MEEKER         CLOUDY    20  13  74 CALM      30.22R
RABBIT EARS PA FAIR       9   3  78 W12G18    30.07F WCI  -6
STEAMBOAT SPGS MOCLDY    18   7  62 CALM      30.20S
WALDEN         MOCLDY    18   3  53 S13G18    30.12F WCI   4
$$

COZ006>008-011-230100-
...WEST CENTRAL VALLEYS...

CITY           SKY/WX    TMP DP  RH WIND       PRES   REMARKS
GRAND JUNCTION MOCLDY    25  21  85 NW3       30.28R
MONTROSE       FAIR      32   9  38 N6        30.25R WCI  26
EAGLE          FAIR      28  12  51 CALM      30.21R
RIFLE          FAIR      29  17  61 W7        30.25R WCI  22
DELTA          FAIR      35  13  41 W9        30.26R WCI  27
NUCLA          MOCLDY    32  14  47 CALM      30.27S
$$

COZ017>023-064>068-230100-
...SOUTHWEST COLORADO...

CITY           SKY/WX    TMP DP  RH WIND       PRES   REMARKS
DURANGO        FAIR      27  17  66 E6        30.20R WCI  20
CORTEZ         FAIR      33  15  47 W6        30.22S WCI  28
PAGOSA SPRINGS FAIR      26  16  67 CALM      30.19S
TELLURIDE      FAIR      24   8  50 SE6       30.19R WCI  17
WOLF CREEK PAS FAIR      12   0  57 SW7       30.18S WCI   2
$$

COZ009-010-012-014-032>034-037-058>063-230100-
...CENTRAL COLORADO...

CITY           SKY/WX    TMP DP  RH WIND       PRES   REMARKS
ASPEN          FAIR      21   6  52 S6        30.14F WCI  13
BUENA VISTA    FAIR      27  -4  26 W7        30.11R WCI  19
COPPER MTN     NOT AVBL
BERTHOUD PASS  FAIR       0 -11  60 NW30G41   29.98S WCI -26
COTTONWOOD PAS FAIR      28  -8  20 W15G28    30.10R WCI  17
GUNNISON       FAIR      22   9  57 NE5       30.19R WCI  16
KREMMLING      FAIR      21  12  68 CALM      30.19S
LEADVILLE      FAIR      15  -1  49 W5        30.09R WCI   8
MONARCH PASS     N/A      7   3  85 SW26      30.18S WCI -16
SALIDA         FAIR      30   6  37 SW10      30.19S WCI  21
SUNLIGHT       CLOUDY    10   9  92 MISG      30.16R
WILKERSON PASS FAIR      18 -13  25 W13G21    30.08R WCI   4
$$

COZ069>075-230100-
...SAN LUIS VALLEY/SANGRE DE CRISTO MOUNTAINS...

CITY           SKY/WX    TMP DP  RH WIND       PRES   REMARKS
ALAMOSA        FAIR      25   5  42 E5        30.16R WCI  19
DEL NORTE      FAIR      27   3  35 E7        30.15R WCI  20
LA VETA PASS   FAIR      14   5  67 SW23        N/A  WCI  -5
SAGUACHE       FAIR      30   5  34 NW8       30.16R WCI  23
$$

COZ035-036-038>040-230100-
...NORTHERN COLORADO FRONT RANGE...

CITY           SKY/WX    TMP DP  RH WIND       PRES   REMARKS
DENVER INTL AP FAIR      39  -1  18 CALM      30.03R
DMNS CITY PARK NOT AVBL
AURORA         PTCLDY    37   5  26 N5        30.04R
FRONT RANGE AP PTCLDY    36   7  30 NW6       30.04R
ERIE MUNI ARPT FAIR      36   8  31 S3        30.08R
BOULDER MUN AP FAIR      39   1  20 W10       30.02R
CENTENNIAL     FAIR      36   3  25 NW9       30.03R
BROOMFIELD     PTCLDY    36   5  27 W23       30.03R
FORT COLLINS   FAIR      32  16  51 SE9       30.02R WCI  24
LONGMONT       FAIR      37  12  36 CALM      30.04R
$$

COZ041-046-047-076>085-087-088-230100-
...PIKES PEAK/PALMER DIVIDE AND SOUTHERN FOOTHILLS...

CITY           SKY/WX    TMP DP  RH WIND       PRES   REMARKS
COLO. SPRINGS  FAIR      37   9  31 NE5       30.05R
A. F. ACADEMY  FAIR      34   2  25 CALM      30.04R
SCHRIEVER AFB  FAIR      33   5  30 N7        30.05R WCI  27
CHEYENNE MTN   FAIR      36   0  22 SW5       29.99R
ELLICOTT         N/A    N/A N/A N/A NE7       30.04R
FALCON         FAIR      30   3  30 N3        30.06R
FORT CARSON    FAIR      39   5  24 S8        30.03R
LIMON          FAIR      29  13  51 NW3       30.04R
MONUMENT HILL  FAIR      27   3  36 CALM      30.06R
CANON CITY     FAIR      39  16  38 W12       30.05R
WALSENBURG     NOT AVBL
TRINIDAD       FAIR      39   6  25 NW8       30.08R
$$

COZ042>045-048>051-090-091-230100-
...NORTHEAST COLORADO...

CITY           SKY/WX    TMP DP  RH WIND       PRES   REMARKS
GREELEY ARPT   FAIR      32  16  51 N17       30.02R WCI  21
AKRON          FAIR      29  15  56 N23       30.01R WCI  15
BURLINGTON     FAIR      24  16  71 NW10      30.02R WCI  14
WRAY           FAIR      32  19  59 NW14      30.02R WCI  22
YUMA           FAIR      30  18  59 NW13      30.01R WCI  20
STERLING       FAIR      32  19  59 NW18      30.02R WCI  20
HOLYOKE        FAIR      34  21  60 NW12      30.01R WCI  25
FORT MORGAN    FAIR      32  15  49 NW16      30.04R WCI  21
$$

COZ086-089-092>099-230100-
...SOUTHEAST COLORADO...

CITY           SKY/WX    TMP DP  RH WIND       PRES   REMARKS
PUEBLO         FAIR      47   2  15 CALM      30.04R
LA JUNTA       FAIR      42   9  25 N7        30.05R
LAMAR          FAIR      38  19  46 CALM      30.05R
SPRINGFIELD      N/A     33  16  49 CALM      30.06R
$$




USA.gov is the U.S. government's official web portal to all federal, state and local government web resources and services.